Weather Roundup
Issued by NWS

Home | Current Version | Previous Version | Graphics & Text | Print | Product List | Glossary Off
Versions: 1 2 3 4 5 6 7 8 9 10 11 12 13 14 15 16 17 18 19 20 21 22 23 24 25 26 27 28 29 30 31 32 33 34 35 36 37 38 39 40 41 42 43 44 45 46 47 48 49 50

516
NZUS93 KARX 031010
HRRWXR

CURRENT HOURLY OBSERVATIONS ACROSS
MUCH OF THE UPPER MISSISSIPPI VALLEY
NATIONAL WEATHER SERVICE LA CROSSE WI
500 AM CDT TUE MAY 03 2016


...SOUTHEAST MINNESOTA...


CITY           SKY/WX    TMP DP  RH WIND       PRES   REMARKS
ROCHESTER      CLEAR     45  39  79 SW10      29.99S
ROCHESTER/MAYO FAIR      48  38  70 SW5       29.99S
WINONA         CLEAR     41  37  87 CALM      29.98S
AUSTIN         CLEAR     43  37  81 SW3       29.99F
ALBERT LEA     CLEAR     46  41  81 CALM      30.00S
DODGE CENTER   PTCLDY    39  36  87 W8        29.98F WCI  34
PRESTON        CLEAR     46  38  74 W10       29.99F
OWATONNA       CLEAR     45  37  76 SW6       29.99S
FARIBAULT      CLEAR     41  37  87 CALM      29.98S
$$

...ELSEWHERE IN MINNESOTA...


CITY           SKY/WX    TMP DP  RH WIND       PRES   REMARKS
MINNEAPOLIS    CLEAR     49  37  63 SW6       29.95F
INTNL FALLS    CLOUDY    50  31  48 W8        29.76F
DULUTH         CLOUDY    49  31  49 W14       29.84F
RED WING       CLEAR     37  36  93 CALM      29.96S
REDWOOD FALLS  CLEAR     49  37  63 W10       29.98S
MANKATO        CLEAR     46  36  66 SW7       29.99S
WORTHINGTON    CLEAR     43  38  82 SW5       30.03R
FAIRMONT       CLEAR     45  36  70 W9        30.00S
$$

...SOUTHWEST WISCONSIN...


CITY           SKY/WX    TMP DP  RH WIND       PRES   REMARKS
LA CROSSE      CLEAR     46  40  79 S5        29.97S
PRAIRIE DU CHI CLEAR     43  37  80 CALM      29.99F
BOSCOBEL       CLEAR     39  37  92 SW3       29.99S
LONE ROCK      CLEAR     37  35  92 W3        29.98F
PLATTEVILLE    CLEAR     43  39  86 W5        29.98F
FORT MC COY    CLEAR     32  31  97 CALM      29.97F
CAMP DOUGLAS     N/A     34  34 100 CALM      29.94
MAUSTON-NEW LI SUNNY     38  37  96 CALM      29.94
VIROQUA        FAIR      45  37  72 W7        29.97F
WIS DELLS      CLEAR     39  35  87 CALM      29.95F
$$

...ELSEWHERE IN WISCONSIN...


CITY           SKY/WX    TMP DP  RH WIND       PRES   REMARKS
MILWAUKEE      PTCLDY    47  32  56 W6        29.95F
MADISON        CLEAR     38  36  92 CALM      29.95F
GREEN BAY      CLEAR     45  37  73 SW7       29.91F
EAU CLAIRE     CLEAR     42  38  85 SW3       29.93F
BLACK RVR FLS  FAIR      32  32 100 CALM      29.95F FOG
MEDFORD        CLEAR     44  33  66 W3        29.91F
WAUSAU         CLEAR     44  35  70 NW5       29.90F
WIS RAPIDS     CLEAR     36  33  89 CALM      29.94F
MARSHFIELD     CLEAR     45  34  65 W7        29.92F
RICE LAKE      CLEAR     38  34  85 CALM      29.94S
$$

...NORTHEAST IOWA...


CITY           SKY/WX    TMP DP  RH WIND       PRES   REMARKS
WATERLOO       CLEAR     38  36  92 CALM      30.01S
DUBUQUE        CLEAR     43  38  82 SW5       29.99F
DECORAH        PTCLDY    46  39  76 VRB3      29.99S
MASON CITY     CLEAR     46  40  79 W7        30.02S
CHARLES CITY   CLEAR     45  41  87 W7        30.01S
OELWEIN        PTCLDY    43  43 100 W6        30.02R
$$

...ELSEWHERE IN IOWA...


CITY           SKY/WX    TMP DP  RH WIND       PRES   REMARKS
DES MOINES     PTCLDY    46  41  82 CALM      30.04S
IOWA CITY      CLEAR     40  37  89 W3        30.03S
FORT DODGE     CLEAR     39  36  87 CALM      30.03S
MARSHALLTOWN   CLEAR     42  39  89 W5        30.02S
CEDAR RAPIDS   CLEAR     43  39  86 W5        30.01S
$$

...NORTHERN ILLINOIS...


CITY           SKY/WX    TMP DP  RH WIND       PRES   REMARKS
CHICAGO-OHARE  PTCLDY    42  35  76 W6        29.96F
CHICAGO-MIDWAY PTCLDY    44  34  67 CALM      29.97S
MOLINE         CLEAR     40  37  89 CALM      30.00F
ROCKFORD       MOCLDY    41  37  86 S3        29.99F
PEORIA         CLEAR     42  40  92 CALM      30.00F
$$

NOTE: "FAIR" INDICATES FEW OR NO CLOUDS BELOW 12,000 FEET WITH NO
SIGNIFICANT WEATHER AND/OR OBSTRUCTIONS TO VISIBILITY. WIND
SPEEDS ARE IN MILES-PER-HOUR.




USA.gov is the U.S. government's official web portal to all federal, state and local government web resources and services.